BERGEN/FLESLAND_AFB current weather conditions

sailwx.info

Wind from 040 at 2 knots

Air temperature -1.0° C
Visibility: greater than 5.4 NM
Dewpoint -4.0° C

Last reported at 2017-Feb-23 07:50 UTC.
Time now 2017-Feb-23 09:27 UTC

Location: N 60°18' E 005°13'.
View on Google Maps.

See reports from other nearby stations

  
Tides and Currents Weather Stations Pressure Air Temp Water Temp Dewpoint Dewpoint Depression Visibility Wind Speed Wind Dir Waves Ship Positions
date/time (UTC)wind fromknots sea level pressurealtimeterstation pressurevisibilityair tempwater tempwave heightnotes
2017-Feb-23 08:20 020 4 5.4-1.0
2017-Feb-23 07:50 040 2 5.4-1.0
2017-Feb-23 07:20 010 5 5.4-1.0
2017-Feb-23 06:50 350 6 5.4-1.0
2017-Feb-23 06:20 340 5 5.4-0.0
2017-Feb-23 05:50 350 7 5.4-0.0
2017-Feb-23 05:20 350 6 5.4-0.0
2017-Feb-23 04:50 350 6 5.4-0.0
2017-Feb-23 03:50 340 11 5.4 1.0
2017-Feb-23 03:20 330 14 5.4 1.0 Light snow.
2017-Feb-23 02:50 340 13 5.4-0.0
2017-Feb-23 01:50 340 13 5.4 1.0
2017-Feb-23 01:20 330 13 5.4 1.0
2017-Feb-22 23:50 340 18 5.4 3.0
2017-Feb-22 23:20 340 20 gusting 31 5.4 3.0
2017-Feb-22 22:50 330 24 gusting 36 5.4 3.0
2017-Feb-22 22:20 330 22 gusting 34 5.4 3.0
2017-Feb-22 21:50 340 22 gusting 33 5.4 4.0
2017-Feb-22 21:20 340 21 gusting 32 5.4 4.0
2017-Feb-22 20:50 340 18 5.4 4.0
2017-Feb-22 20:20 340 17 5.4 4.0
2017-Feb-22 19:50 330 19 5.4 4.0
2017-Feb-22 19:20 330 20 5.4 5.0
2017-Feb-22 18:50 340 18 gusting 27 5.4 5.0 Showers in the vicinity.
2017-Feb-22 18:20 330 20 gusting 32 5.4 5.0 Showers in the vicinity.
2017-Feb-22 17:50 310 17 gusting 27 5.4 5.0 Showers in the vicinity.
2017-Feb-22 17:20 320 17 5.4 5.0 Light rain showers.
2017-Feb-22 16:50 320 15 gusting 26 5.4 5.0 Light rain showers.
2017-Feb-22 16:20 320 19 5.4 5.0 Showers in the vicinity.
2017-Feb-22 15:50 300 13 gusting 24 5.4 6.0 Light rain showers.
2017-Feb-22 15:20 300 11 5.4 6.0 Showers in the vicinity.
2017-Feb-22 14:50 280 12 gusting 21 5.4 5.0 Light rain showers.
2017-Feb-22 14:20 250 13 5.4 4.0 Light rain showers.
2017-Feb-22 13:50 280 15 gusting 29 5.4 4.0 Rain showers.
2017-Feb-22 13:20 250 13 5.4 6.0 Showers in the vicinity.
2017-Feb-22 12:50 250 15 gusting 26 5.4 6.0 Showers in the vicinity.
2017-Feb-22 12:20 260 15 gusting 26 5.4 6.0 Showers in the vicinity.
2017-Feb-22 11:50 260 18 5.4 6.0 Light rain showers.
2017-Feb-22 11:20 260 15 5.4 6.0 Showers in the vicinity.
2017-Feb-22 10:50 260 14 5.4 6.0 Showers in the vicinity.
2017-Feb-22 10:20 220 12 5.4 4.0 Showers in the vicinity.
2017-Feb-22 09:50 250 11 5.4 4.0 Showers in the vicinity.
2017-Feb-22 09:20 230 14 5.4 5.0 Showers in the vicinity.
2017-Feb-22 08:50 230 14 5.4 5.0 Showers in the vicinity.
2017-Feb-22 08:20 220 15 5.4 5.0 Light rain showers.
2017-Feb-22 07:50 230 14 5.4 4.0 Showers in the vicinity.
2017-Feb-22 07:20 220 18 gusting 27 5.4 5.0 Showers in the vicinity.
2017-Feb-22 06:50 230 11 5.4 4.0 Showers in the vicinity.
2017-Feb-22 06:20 240 17 gusting 28 5.4 5.0 Showers in the vicinity.
2017-Feb-22 05:50 230 14 5.4 5.0 Thunderstorm.
2017-Feb-22 05:20 230 13 5.4 5.0
2017-Feb-22 04:50 230 8 5.4 5.0
2017-Feb-22 03:50 240 8 5.4 5.0
2017-Feb-22 02:50 260 8 5.4 6.0
2017-Feb-22 01:50 5.4 4.0 Showers in the vicinity.
2017-Feb-22 00:50 290 15 gusting 27 3.2 4.0 Rain.
2017-Feb-21 23:50 140 15 4.9 3.0 Light drizzle snow.
2017-Feb-21 22:50 140 19 4.3 2.0 Light drizzle snow.
2017-Feb-21 22:20 140 17 2.7 1.0 Light drizzle snow.
2017-Feb-21 21:50 160 21 4.9 2.0 Rain.
2017-Feb-21 21:20 160 20 4.9 3.0 Rain.
2017-Feb-21 20:50 170 20 4.9 3.0 Light rain.
2017-Feb-21 20:20 180 21 4.3 4.0 Rain.
2017-Feb-21 19:50 170 20 5.4 4.0 Light rain.
2017-Feb-21 19:20 160 20 5.4 4.0 Light rain.
2017-Feb-21 18:50 160 19 5.4 4.0 Light rain.
2017-Feb-21 18:20 160 13 5.4 4.0 Light rain.
2017-Feb-21 17:50 150 12 5.4 4.0 Light rain.
2017-Feb-21 17:20 160 14 5.4 4.0
2017-Feb-21 16:50 160 14 5.4 5.0
2017-Feb-21 16:20 160 12 5.4 5.0
2017-Feb-21 15:50 150 9 5.4 5.0
2017-Feb-21 15:20 170 7 5.4 5.0
2017-Feb-21 14:50 180 6 5.4 5.0
2017-Feb-21 14:20 220 4 5.4 5.0
2017-Feb-21 13:50 250 5 5.4 5.0
2017-Feb-21 13:20 270 6 5.4 5.0
2017-Feb-21 12:50 300 6 5.4 5.0
2017-Feb-21 12:20 270 5 5.4 6.0
2017-Feb-21 11:50 320 6 5.4 5.0 Showers in the vicinity.
2017-Feb-21 11:20 310 6 5.4 6.0 Showers in the vicinity.
2017-Feb-21 10:50 320 6 5.4 5.0 Showers in the vicinity.
2017-Feb-21 10:20 330 8 5.4 5.0 Showers in the vicinity.
2017-Feb-21 09:50 330 9 5.4 5.0 Showers in the vicinity.
2017-Feb-21 09:20 320 6 5.4 4.0 Showers in the vicinity.